sat.trackr.live / text

‹ back to catalog

ICEYE-X51

NORAD 63257 · 2025-052AZ

PAYLOAD ACTIVE UNKNOWN

§ Identity

Operator
Country
US
Launch date
2025-03-15
Launch site
AFWTR
Launch vehicle
Mass (kg)
RCS (m²)

External: N2YO · Heavens-Above · Gunter

§ Orbital elements

Epoch: 2026-09-22T22:16:39.720000Z

Period
95.94 min
Inclination
97.7719°
Eccentricity
0.0001856
Mean motion
15.00866415 rev/d
Perigee alt
562.9 km
Apogee alt
565.5 km
Semi-major
6,942.4 km
B*
2.4226e-4
RAAN
160.9275°
Arg perigee
60.5703°
Mean anomaly
299.5706°
Rev number
8,346

§ Raw data

ICEYE-X511 63257U 25052AZ  26265.92823750  .00003021  00000+0  24226-3 0  99982 63257  97.7719 160.9275 0001856  60.5703 299.5706 15.00866415 83461

JSON: /api/v1/satellites/63257 · /tle

For live sub-satellite position, see the globe view (requires WebGL).

§ Visibility from observer

Set your observer location to see the next 7 days of passes ≥ 10°. The values pass through the URL so the page stays shareable.

No JS? Fill the form by hand. The geolocation button needs JavaScript.

§ Radio — SatNOGS DB

ModeDescriptionDownlinkUplink
FM S-band telemetry 2.270 GHz

1 transmitter · refreshed weekly from db.satnogs.org